sat.trackr.live / text

‹ back to catalog

KUIPER-00286

NORAD 68590 · 2026-072T

PAYLOAD ACTIVE UNKNOWN

§ Identity

Operator
Country
US
Launch date
2026-04-04
Launch site
AFETR
Launch vehicle
Mass (kg)
RCS (m²)

External: N2YO · Heavens-Above · Gunter

§ Orbital elements

Epoch: 2026-09-20T03:57:25.543008Z

Period
97.30 min
Inclination
51.9002°
Eccentricity
0.0000967
Mean motion
14.79930698 rev/d
Perigee alt
628.9 km
Apogee alt
630.2 km
Semi-major
7,007.7 km
B*
1.6162e-4
RAAN
110.6780°
Arg perigee
133.0739°
Mean anomaly
227.0304°
Rev number
2,553

§ Raw data

KUIPER-002861 68590U 26072T   26263.16487897  .00001011  00000+0  16162-3 0  99952 68590  51.9002 110.6780 0000967 133.0739 227.0304 14.79930698 25537

JSON: /api/v1/satellites/68590 · /tle

For live sub-satellite position, see the globe view (requires WebGL).

§ Visibility from observer

Set your observer location to see the next 7 days of passes ≥ 10°. The values pass through the URL so the page stays shareable.

No JS? Fill the form by hand. The geolocation button needs JavaScript.